Tracking 18840 objects as of 17-November-2017
HD Live streaming from Space Station
objects crossing your sky now

ARIANE 5 R/B

Track ARIANE 5 R/B now!


NORAD ID: 33754
Int'l Code: 2009-008F
Perigee: 287.0 km
Apogee: 34,376.1 km
Inclination: 2.4 °
Period: 605.3 minutes
Semi major axis: 23702 km
RCS: 21.2292 m2 (large)
Launch date: February 12, 2009
Source: France (FR)
Launch site: FRENCH GUIANA (FRGUI)

Note: This is a ROCKET BODY
aabbcc
Your satellite tracking list
Your tracking list is empty




NASA's NSSDC Master Catalog

Two Line Element Set (TLE):
1 33754U 09008F   17320.66998583  .00000766  00000-0  47715-3 0  9992
2 33754   2.4317   1.6308 7191029  21.4812 357.6668  2.37909005 74340
Source of the keplerian elements: AFSPC